Year,Month,Day,Hour,Minute,Value (Times are PST for windspeed in km/hr)
2008,04,21,00,00,0.50
2008,04,21,00,01,0.80
2008,04,21,00,02,0.30
2008,04,21,00,03,2.00
2008,04,21,00,04,1.70
2008,04,21,00,05,1.70
2008,04,21,00,06,0.70
2008,04,21,00,07,0.00
2008,04,21,00,08,0.70
2008,04,21,00,09,1.70
2008,04,21,00,10,0.70
2008,04,21,00,11,1.40
2008,04,21,00,12,0.10
2008,04,21,00,13,1.20
2008,04,21,00,14,1.30
2008,04,21,00,15,0.40
2008,04,21,00,16,1.90
2008,04,21,00,17,2.40
2008,04,21,00,18,3.60
2008,04,21,00,19,4.30
2008,04,21,00,20,4.30
2008,04,21,00,21,3.50
2008,04,21,00,22,2.90
2008,04,21,00,23,1.40
2008,04,21,00,24,0.60
2008,04,21,00,25,0.10
2008,04,21,00,26,0.00
2008,04,21,00,27,0.00
2008,04,21,00,28,0.00
2008,04,21,00,29,0.20
2008,04,21,00,30,0.10
2008,04,21,00,31,0.00
2008,04,21,00,32,0.00
2008,04,21,00,33,0.00
2008,04,21,00,34,0.00
2008,04,21,00,35,0.00
2008,04,21,00,36,0.10
2008,04,21,00,37,2.10
2008,04,21,00,38,1.20
2008,04,21,00,39,1.30
2008,04,21,00,40,0.20
2008,04,21,00,41,0.10
2008,04,21,00,42,0.00
2008,04,21,00,43,0.00
2008,04,21,00,44,0.00
2008,04,21,00,45,0.00
2008,04,21,00,46,0.00
2008,04,21,00,47,0.30
2008,04,21,00,48,0.00
2008,04,21,00,49,0.00
2008,04,21,00,50,0.00
2008,04,21,00,51,0.00
2008,04,21,00,52,0.00
2008,04,21,00,53,0.00
2008,04,21,00,54,0.00
2008,04,21,00,55,0.00
2008,04,21,00,56,0.00
2008,04,21,00,57,0.00
2008,04,21,00,58,0.00
2008,04,21,00,59,0.00
2008,04,21,01,00,0.00
2008,04,21,01,01,0.00
2008,04,21,01,02,0.00
2008,04,21,01,03,0.00
2008,04,21,01,04,0.00
2008,04,21,01,05,0.00
2008,04,21,01,06,0.00
2008,04,21,01,07,0.00
2008,04,21,01,08,0.00
2008,04,21,01,09,0.00
2008,04,21,01,10,0.50
2008,04,21,01,11,0.50
2008,04,21,01,12,0.60
2008,04,21,01,13,2.40
2008,04,21,01,14,2.10
2008,04,21,01,15,0.80
2008,04,21,01,16,1.10
2008,04,21,01,17,0.00
2008,04,21,01,18,0.70
2008,04,21,01,19,0.20
2008,04,21,01,20,0.00
2008,04,21,01,21,0.00
2008,04,21,01,22,0.00
2008,04,21,01,23,0.00
2008,04,21,01,24,0.00
2008,04,21,01,25,0.00
2008,04,21,01,26,1.40
2008,04,21,01,27,1.90
2008,04,21,01,28,0.30
2008,04,21,01,29,1.20
2008,04,21,01,30,0.10
2008,04,21,01,31,0.70
2008,04,21,01,32,0.00
2008,04,21,01,33,0.00
2008,04,21,01,34,0.00
2008,04,21,01,35,0.00
2008,04,21,01,36,0.00
2008,04,21,01,37,0.00
2008,04,21,01,38,0.00
2008,04,21,01,39,0.00
2008,04,21,01,40,0.50
2008,04,21,01,41,0.00
2008,04,21,01,42,0.00
2008,04,21,01,43,0.00
2008,04,21,01,44,0.00
2008,04,21,01,45,0.00
2008,04,21,01,46,0.00
2008,04,21,01,47,0.00
2008,04,21,01,48,0.80
2008,04,21,01,49,1.90
2008,04,21,01,50,0.80
2008,04,21,01,51,0.90
2008,04,21,01,52,0.10
2008,04,21,01,53,0.10
2008,04,21,01,54,0.90
2008,04,21,01,55,2.50
2008,04,21,01,56,1.60
2008,04,21,01,57,0.30
2008,04,21,01,58,0.50
2008,04,21,01,59,0.00
2008,04,21,02,00,1.30
2008,04,21,02,01,1.90
2008,04,21,02,02,3.30
2008,04,21,02,03,2.00
2008,04,21,02,04,2.70
2008,04,21,02,05,3.10
2008,04,21,02,06,3.60
2008,04,21,02,07,2.20
2008,04,21,02,08,1.60
2008,04,21,02,09,2.70
2008,04,21,02,10,1.40
2008,04,21,02,11,2.10
2008,04,21,02,12,0.20
2008,04,21,02,13,0.00
2008,04,21,02,14,0.20
2008,04,21,02,15,0.00
2008,04,21,02,16,0.90
2008,04,21,02,17,0.10
2008,04,21,02,18,0.70
2008,04,21,02,19,0.00
2008,04,21,02,20,0.00
2008,04,21,02,21,0.00
2008,04,21,02,22,0.30
2008,04,21,02,23,0.00
2008,04,21,02,24,0.00
2008,04,21,02,25,0.00
2008,04,21,02,26,0.10
2008,04,21,02,27,0.00
2008,04,21,02,28,1.00
2008,04,21,02,29,0.60
2008,04,21,02,30,0.30
2008,04,21,02,31,1.00
2008,04,21,02,32,0.10
2008,04,21,02,33,0.00
2008,04,21,02,34,0.10
2008,04,21,02,35,0.50
2008,04,21,02,36,0.90
2008,04,21,02,37,1.10
2008,04,21,02,38,1.10
2008,04,21,02,39,0.00
2008,04,21,02,40,0.10
2008,04,21,02,41,0.00
2008,04,21,02,42,0.00
2008,04,21,02,43,0.00
2008,04,21,02,44,0.00
2008,04,21,02,45,0.00
2008,04,21,02,46,0.10
2008,04,21,02,47,0.00
2008,04,21,02,48,1.20
2008,04,21,02,49,0.80
2008,04,21,02,50,0.90
2008,04,21,02,51,0.40
2008,04,21,02,52,0.50
2008,04,21,02,53,1.60
2008,04,21,02,54,1.30
2008,04,21,02,55,1.10
2008,04,21,02,56,1.80
2008,04,21,02,57,0.50
2008,04,21,02,58,0.00
2008,04,21,02,59,0.00
2008,04,21,03,00,0.00
2008,04,21,03,01,0.00
2008,04,21,03,02,0.00
2008,04,21,03,03,0.00
2008,04,21,03,04,0.50
2008,04,21,03,05,0.50
2008,04,21,03,06,0.00
2008,04,21,03,07,0.00
2008,04,21,03,08,0.00
2008,04,21,03,09,0.00
2008,04,21,03,10,0.00
2008,04,21,03,11,0.00
2008,04,21,03,12,0.00
2008,04,21,03,13,0.00
2008,04,21,03,14,0.10
2008,04,21,03,15,0.00
2008,04,21,03,16,0.00
2008,04,21,03,17,1.00
2008,04,21,03,18,0.80
2008,04,21,03,19,0.00
2008,04,21,03,20,0.00
2008,04,21,03,21,0.00
2008,04,21,03,22,0.00
2008,04,21,03,23,0.00
2008,04,21,03,24,0.20
2008,04,21,03,25,0.20
2008,04,21,03,26,0.10
2008,04,21,03,27,0.10
2008,04,21,03,28,0.00
2008,04,21,03,29,0.00
2008,04,21,03,30,0.00
2008,04,21,03,31,0.00
2008,04,21,03,32,0.00
2008,04,21,03,33,0.00
2008,04,21,03,34,0.10
2008,04,21,03,35,0.00
2008,04,21,03,36,0.00
2008,04,21,03,37,0.00
2008,04,21,03,38,0.00
2008,04,21,03,39,0.10
2008,04,21,03,40,0.00
2008,04,21,03,41,0.00
2008,04,21,03,42,0.00
2008,04,21,03,43,0.00
2008,04,21,03,44,0.00
2008,04,21,03,45,0.00
2008,04,21,03,46,0.00
2008,04,21,03,47,0.00
2008,04,21,03,48,0.00
2008,04,21,03,49,0.00
2008,04,21,03,50,0.00
2008,04,21,03,51,0.00
2008,04,21,03,52,0.00
2008,04,21,03,53,0.00
2008,04,21,03,54,0.00
2008,04,21,03,55,0.00
2008,04,21,03,56,0.00
2008,04,21,03,57,0.00
2008,04,21,03,58,0.20
2008,04,21,03,59,0.00
2008,04,21,04,00,0.30
2008,04,21,04,01,0.00
2008,04,21,04,02,0.20
2008,04,21,04,03,1.90
2008,04,21,04,04,2.60
2008,04,21,04,05,1.70
2008,04,21,04,06,0.40
2008,04,21,04,07,0.10
2008,04,21,04,08,0.00
2008,04,21,04,09,0.00
2008,04,21,04,10,0.10
2008,04,21,04,11,0.00
2008,04,21,04,12,0.60
2008,04,21,04,13,2.30
2008,04,21,04,14,3.00
2008,04,21,04,15,1.60
2008,04,21,04,16,1.70
2008,04,21,04,17,4.00
2008,04,21,04,18,3.40
2008,04,21,04,19,0.20
2008,04,21,04,20,0.00
2008,04,21,04,21,0.00
2008,04,21,04,22,0.00
2008,04,21,04,23,0.00
2008,04,21,04,24,0.40
2008,04,21,04,25,2.90
2008,04,21,04,26,1.60
2008,04,21,04,27,0.00
2008,04,21,04,28,1.20
2008,04,21,04,29,2.90
2008,04,21,04,30,3.60
2008,04,21,04,31,3.40
2008,04,21,04,32,1.20
2008,04,21,04,33,2.90
2008,04,21,04,34,1.90
2008,04,21,04,35,0.90
2008,04,21,04,36,1.10
2008,04,21,04,37,0.90
2008,04,21,04,38,2.90
2008,04,21,04,39,1.70
2008,04,21,04,40,0.40
2008,04,21,04,41,0.00
2008,04,21,04,42,0.00
2008,04,21,04,43,0.00
2008,04,21,04,44,0.60
2008,04,21,04,45,2.40
2008,04,21,04,46,0.10
2008,04,21,04,47,1.00
2008,04,21,04,48,2.00
2008,04,21,04,49,0.30
2008,04,21,04,50,1.10
2008,04,21,04,51,0.00
2008,04,21,04,52,0.50
2008,04,21,04,53,2.20
2008,04,21,04,54,0.40
2008,04,21,04,55,2.00
2008,04,21,04,56,0.20
2008,04,21,04,57,0.00
2008,04,21,04,58,1.10
2008,04,21,04,59,0.40
2008,04,21,05,00,1.10
2008,04,21,05,01,0.50
2008,04,21,05,02,0.00
2008,04,21,05,03,1.60
2008,04,21,05,04,1.50
2008,04,21,05,05,0.10
2008,04,21,05,06,0.10
2008,04,21,05,07,0.00
2008,04,21,05,08,0.00
2008,04,21,05,09,0.10
2008,04,21,05,10,0.60
2008,04,21,05,11,1.20
2008,04,21,05,12,0.90
2008,04,21,05,13,0.00
2008,04,21,05,14,0.00
2008,04,21,05,15,0.00
2008,04,21,05,16,0.00
2008,04,21,05,17,0.00
2008,04,21,05,18,0.00
2008,04,21,05,19,0.00
2008,04,21,05,20,0.00
2008,04,21,05,21,0.00
2008,04,21,05,22,0.00
2008,04,21,05,23,0.00
2008,04,21,05,24,0.00
2008,04,21,05,25,0.00
2008,04,21,05,26,1.00
2008,04,21,05,27,2.30
2008,04,21,05,28,2.40
2008,04,21,05,29,0.50
2008,04,21,05,30,0.00
2008,04,21,05,31,0.20
2008,04,21,05,32,0.50
2008,04,21,05,33,0.60
2008,04,21,05,34,0.30
2008,04,21,05,35,0.00
2008,04,21,05,36,0.00
2008,04,21,05,37,0.00
2008,04,21,05,38,0.00
2008,04,21,05,39,0.00
2008,04,21,05,40,0.00
2008,04,21,05,41,1.50
2008,04,21,05,42,1.70
2008,04,21,05,43,2.00
2008,04,21,05,44,2.20
2008,04,21,05,45,1.60
2008,04,21,05,46,0.00
2008,04,21,05,47,0.20
2008,04,21,05,48,0.40
2008,04,21,05,49,1.60
2008,04,21,05,50,0.90
2008,04,21,05,51,0.00
2008,04,21,05,52,0.00
2008,04,21,05,53,0.00
2008,04,21,05,54,0.00
2008,04,21,05,55,0.00
2008,04,21,05,56,1.20
2008,04,21,05,57,1.80
2008,04,21,05,58,2.00
2008,04,21,05,59,2.00
2008,04,21,06,00,3.40
2008,04,21,06,01,1.10
2008,04,21,06,02,0.00
2008,04,21,06,03,1.00
2008,04,21,06,04,0.10
2008,04,21,06,05,0.00
2008,04,21,06,06,0.70
2008,04,21,06,07,0.00
2008,04,21,06,08,0.00
2008,04,21,06,09,0.00
2008,04,21,06,10,0.00
2008,04,21,06,11,2.00
2008,04,21,06,12,1.80
2008,04,21,06,13,2.30
2008,04,21,06,14,1.90
2008,04,21,06,15,0.00
2008,04,21,06,16,0.20
2008,04,21,06,17,1.10
2008,04,21,06,18,0.20
2008,04,21,06,19,0.00
2008,04,21,06,20,0.00
2008,04,21,06,21,0.00
2008,04,21,06,22,0.00
2008,04,21,06,23,0.00
2008,04,21,06,24,0.00
2008,04,21,06,25,0.00
2008,04,21,06,26,0.00
2008,04,21,06,27,0.00
2008,04,21,06,28,0.00
2008,04,21,06,29,0.00
2008,04,21,06,30,0.00
2008,04,21,06,31,0.00
2008,04,21,06,32,0.00
2008,04,21,06,33,0.00
2008,04,21,06,34,0.00
2008,04,21,06,35,0.00
2008,04,21,06,36,0.00
2008,04,21,06,37,0.00
2008,04,21,06,38,0.00
2008,04,21,06,39,0.00
2008,04,21,06,40,0.00
2008,04,21,06,41,0.00
2008,04,21,06,42,0.00
2008,04,21,06,43,0.00
2008,04,21,06,44,0.00
2008,04,21,06,45,0.00
2008,04,21,06,46,0.30
2008,04,21,06,47,1.00
2008,04,21,06,48,2.00
2008,04,21,06,49,2.00
2008,04,21,06,50,0.90
2008,04,21,06,51,1.30
2008,04,21,06,52,0.90
2008,04,21,06,53,0.00
2008,04,21,06,54,0.40
2008,04,21,06,55,0.00
2008,04,21,06,56,0.00
2008,04,21,06,57,0.00
2008,04,21,06,58,1.10
2008,04,21,06,59,0.00
2008,04,21,07,00,0.70
2008,04,21,07,01,1.40
2008,04,21,07,02,1.20
2008,04,21,07,03,0.90
2008,04,21,07,04,0.90
2008,04,21,07,05,0.30
2008,04,21,07,06,0.00
2008,04,21,07,07,0.00
2008,04,21,07,08,0.00
2008,04,21,07,09,0.00
2008,04,21,07,10,0.00
2008,04,21,07,11,0.00
2008,04,21,07,12,0.00
2008,04,21,07,13,0.00
2008,04,21,07,14,0.00
2008,04,21,07,15,0.00
2008,04,21,07,16,0.00
2008,04,21,07,17,0.00
2008,04,21,07,18,0.00
2008,04,21,07,19,0.00
2008,04,21,07,20,0.00
2008,04,21,07,21,0.00
2008,04,21,07,22,0.00
2008,04,21,07,23,0.00
2008,04,21,07,24,0.00
2008,04,21,07,25,0.00
2008,04,21,07,26,0.00
2008,04,21,07,27,0.00
2008,04,21,07,28,0.00
2008,04,21,07,29,0.00
2008,04,21,07,30,0.00
2008,04,21,07,31,0.00
2008,04,21,07,32,0.00
2008,04,21,07,33,0.00
2008,04,21,07,34,0.00
2008,04,21,07,35,0.80
2008,04,21,07,36,0.20
2008,04,21,07,37,0.10
2008,04,21,07,38,0.00
2008,04,21,07,39,0.00
2008,04,21,07,40,0.00
2008,04,21,07,41,0.00
2008,04,21,07,42,0.00
2008,04,21,07,43,0.00
2008,04,21,07,44,0.00
2008,04,21,07,45,0.00
2008,04,21,07,46,0.10
2008,04,21,07,47,0.00
2008,04,21,07,48,0.00
2008,04,21,07,49,0.00
2008,04,21,07,50,0.00
2008,04,21,07,51,0.00
2008,04,21,07,52,0.00
2008,04,21,07,53,0.00
2008,04,21,07,54,1.30
2008,04,21,07,55,1.30
2008,04,21,07,56,2.20
2008,04,21,07,57,1.40
2008,04,21,07,58,0.20
2008,04,21,07,59,0.00
2008,04,21,08,00,0.00
2008,04,21,08,01,0.00
2008,04,21,08,02,0.00
2008,04,21,08,03,0.00
2008,04,21,08,04,0.00
2008,04,21,08,05,0.00
2008,04,21,08,06,0.00
2008,04,21,08,07,0.00
2008,04,21,08,08,0.00
2008,04,21,08,09,0.00
2008,04,21,08,10,0.00
2008,04,21,08,11,0.00
2008,04,21,08,12,0.00
2008,04,21,08,13,0.00
2008,04,21,08,14,0.20
2008,04,21,08,15,0.00
2008,04,21,08,16,0.00
2008,04,21,08,17,0.00
2008,04,21,08,18,0.00
2008,04,21,08,19,0.00
2008,04,21,08,20,0.00
2008,04,21,08,21,0.00
2008,04,21,08,22,0.00
2008,04,21,08,23,0.90
2008,04,21,08,24,0.00
2008,04,21,08,25,0.00
2008,04,21,08,26,1.90
2008,04,21,08,27,0.20
2008,04,21,08,28,0.60
2008,04,21,08,29,1.40
2008,04,21,08,30,1.50
2008,04,21,08,31,0.50
2008,04,21,08,32,0.20
2008,04,21,08,33,0.00
2008,04,21,08,34,0.00
2008,04,21,08,35,0.00
2008,04,21,08,36,0.00
2008,04,21,08,37,0.00
2008,04,21,08,38,0.10
2008,04,21,08,39,0.00
2008,04,21,08,40,0.00
2008,04,21,08,41,0.00
2008,04,21,08,42,0.20
2008,04,21,08,43,1.20
2008,04,21,08,44,2.30
2008,04,21,08,45,3.40
2008,04,21,08,46,1.90
2008,04,21,08,47,0.40
2008,04,21,08,48,0.70
2008,04,21,08,49,0.00
2008,04,21,08,50,0.00
2008,04,21,08,51,0.00
2008,04,21,08,52,0.00
2008,04,21,08,53,0.00
2008,04,21,08,54,0.00
2008,04,21,08,55,0.00
2008,04,21,08,56,0.00
2008,04,21,08,57,0.00
2008,04,21,08,58,0.00
2008,04,21,08,59,0.30
2008,04,21,09,00,1.20
2008,04,21,09,01,2.20
2008,04,21,09,02,0.40
2008,04,21,09,03,0.90
2008,04,21,09,04,0.40
2008,04,21,09,05,1.90
2008,04,21,09,06,2.10
2008,04,21,09,07,2.40
2008,04,21,09,08,3.90
2008,04,21,09,09,2.40
2008,04,21,09,10,3.30
2008,04,21,09,11,0.30
2008,04,21,09,12,1.90
2008,04,21,09,13,4.00
2008,04,21,09,14,2.00
2008,04,21,09,15,1.80
2008,04,21,09,16,0.00
2008,04,21,09,17,0.00
2008,04,21,09,18,0.20
2008,04,21,09,19,0.10
2008,04,21,09,20,0.00
2008,04,21,09,21,0.00
2008,04,21,09,22,2.60
2008,04,21,09,23,2.00
2008,04,21,09,24,0.10
2008,04,21,09,25,1.30
2008,04,21,09,26,1.60
2008,04,21,09,27,1.50
2008,04,21,09,28,1.70
2008,04,21,09,29,0.50
2008,04,21,09,30,0.00
2008,04,21,09,31,0.00
2008,04,21,09,32,3.50
2008,04,21,09,33,1.30
2008,04,21,09,34,2.90
2008,04,21,09,35,1.90
2008,04,21,09,36,0.90
2008,04,21,09,37,0.70
2008,04,21,09,38,0.00
2008,04,21,09,39,3.30
2008,04,21,09,40,4.40
2008,04,21,09,41,5.10
2008,04,21,09,42,0.70
2008,04,21,09,43,3.30
2008,04,21,09,44,0.00
2008,04,21,09,45,0.00
2008,04,21,09,46,0.70
2008,04,21,09,47,1.40
2008,04,21,09,48,1.00
2008,04,21,09,49,1.50
2008,04,21,09,50,2.10
2008,04,21,09,51,3.00
2008,04,21,09,52,9.70
2008,04,21,09,53,5.90
2008,04,21,09,54,3.10
2008,04,21,09,55,0.60
2008,04,21,09,56,2.10
2008,04,21,09,57,1.90
2008,04,21,09,58,2.00
2008,04,21,09,59,1.20
2008,04,21,10,00,0.90
2008,04,21,10,01,0.90
2008,04,21,10,02,1.70
2008,04,21,10,03,3.40
2008,04,21,10,04,0.20
2008,04,21,10,05,7.20
2008,04,21,10,06,4.20
2008,04,21,10,07,0.50
2008,04,21,10,08,0.10
2008,04,21,10,09,1.90
2008,04,21,10,10,3.00
2008,04,21,10,11,4.20
2008,04,21,10,12,3.40
2008,04,21,10,13,4.00
2008,04,21,10,14,4.50
2008,04,21,10,15,0.60
2008,04,21,10,16,1.70
2008,04,21,10,17,4.80
2008,04,21,10,18,3.30
2008,04,21,10,19,3.10
2008,04,21,10,20,0.20
2008,04,21,10,21,1.20
2008,04,21,10,22,1.70
2008,04,21,10,23,2.10
2008,04,21,10,24,0.00
2008,04,21,10,25,0.00
2008,04,21,10,26,0.00
2008,04,21,10,27,0.00
2008,04,21,10,28,0.00
2008,04,21,10,29,0.00
2008,04,21,10,30,0.30
2008,04,21,10,31,0.00
2008,04,21,10,32,0.30
2008,04,21,10,33,0.10
2008,04,21,10,34,0.10
2008,04,21,10,35,0.00
2008,04,21,10,36,0.20
2008,04,21,10,37,0.00
2008,04,21,10,38,0.20
2008,04,21,10,39,0.40
2008,04,21,10,40,0.10
2008,04,21,10,41,0.00
2008,04,21,10,42,2.10
2008,04,21,10,43,0.50
2008,04,21,10,44,0.10
2008,04,21,10,45,1.20
2008,04,21,10,46,1.20
2008,04,21,10,47,0.40
2008,04,21,10,48,0.10
2008,04,21,10,49,0.00
2008,04,21,10,50,0.70
2008,04,21,10,51,1.80
2008,04,21,10,52,2.40
2008,04,21,10,53,0.10
2008,04,21,10,54,0.40
2008,04,21,10,55,1.70
2008,04,21,10,56,1.50
2008,04,21,10,57,4.30
2008,04,21,10,58,3.90
2008,04,21,10,59,3.60
2008,04,21,11,00,3.40
2008,04,21,11,01,4.40
2008,04,21,11,02,3.00
2008,04,21,11,03,3.00
2008,04,21,11,04,1.90
2008,04,21,11,05,1.20
2008,04,21,11,06,0.90
2008,04,21,11,07,2.90
2008,04,21,11,08,1.00
2008,04,21,11,09,0.60
2008,04,21,11,10,1.10
2008,04,21,11,11,0.00
2008,04,21,11,12,0.90
2008,04,21,11,13,0.50
2008,04,21,11,14,0.00
2008,04,21,11,15,2.70
2008,04,21,11,16,1.10
2008,04,21,11,17,2.90
2008,04,21,11,18,1.80
2008,04,21,11,19,2.70
2008,04,21,11,20,1.30
2008,04,21,11,21,2.40
2008,04,21,11,22,3.20
2008,04,21,11,23,4.80
2008,04,21,11,24,4.10
2008,04,21,11,25,4.30
2008,04,21,11,26,4.00
2008,04,21,11,27,3.30
2008,04,21,11,28,5.10
2008,04,21,11,29,3.50
2008,04,21,11,30,5.40
2008,04,21,11,31,3.60
2008,04,21,11,32,2.90
2008,04,21,11,33,5.10
2008,04,21,11,34,3.90
2008,04,21,11,35,3.90
2008,04,21,11,36,5.50
2008,04,21,11,37,3.90
2008,04,21,11,38,4.10
2008,04,21,11,39,3.70
2008,04,21,11,40,3.30
2008,04,21,11,41,4.30
2008,04,21,11,42,3.20
2008,04,21,11,43,1.40
2008,04,21,11,44,4.00
2008,04,21,11,45,1.90
2008,04,21,11,46,5.40
2008,04,21,11,47,4.50
2008,04,21,11,48,5.20
2008,04,21,11,49,3.90
2008,04,21,11,50,1.70
2008,04,21,11,51,2.50
2008,04,21,11,52,3.40
2008,04,21,11,53,4.30
2008,04,21,11,54,5.60
2008,04,21,11,55,5.80
2008,04,21,11,56,5.70
2008,04,21,11,57,4.60
2008,04,21,11,58,5.10
2008,04,21,11,59,5.00
2008,04,21,12,00,3.30
2008,04,21,12,01,6.40
2008,04,21,12,02,2.60
2008,04,21,12,03,4.80
2008,04,21,12,04,4.90
2008,04,21,12,05,3.10
2008,04,21,12,06,4.30
2008,04,21,12,07,5.10
2008,04,21,12,08,4.30
2008,04,21,12,09,6.00
2008,04,21,12,10,2.70
2008,04,21,12,11,5.90
2008,04,21,12,12,4.10
2008,04,21,12,13,9.70
2008,04,21,12,14,6.80
2008,04,21,12,15,4.90
2008,04,21,12,16,6.50
2008,04,21,12,17,5.60
2008,04,21,12,18,7.90
2008,04,21,12,19,5.00
2008,04,21,12,20,6.00
2008,04,21,12,21,3.50
2008,04,21,12,22,6.50
2008,04,21,12,23,4.60
2008,04,21,12,24,3.10
2008,04,21,12,25,4.10
2008,04,21,12,26,4.00
2008,04,21,12,27,3.60
2008,04,21,12,28,5.90
2008,04,21,12,29,5.00
2008,04,21,12,30,3.10
2008,04,21,12,31,6.20
2008,04,21,12,32,2.90
2008,04,21,12,33,2.50
2008,04,21,12,34,3.70
2008,04,21,12,35,4.20
2008,04,21,12,36,2.00
2008,04,21,12,37,1.70
2008,04,21,12,38,1.00
2008,04,21,12,39,3.90
2008,04,21,12,40,4.90
2008,04,21,12,41,7.30
2008,04,21,12,42,7.00
2008,04,21,12,43,5.80
2008,04,21,12,44,5.50
2008,04,21,12,45,6.50
2008,04,21,12,46,3.10
2008,04,21,12,47,3.90
2008,04,21,12,48,3.50
2008,04,21,12,49,9.70
2008,04,21,12,50,5.80
2008,04,21,12,51,8.10
2008,04,21,12,52,7.90
2008,04,21,12,53,7.80
2008,04,21,12,54,9.20
2008,04,21,12,55,5.00
2008,04,21,12,56,3.20
2008,04,21,12,57,3.70
2008,04,21,12,58,7.40
2008,04,21,12,59,7.20
2008,04,21,13,00,6.20
2008,04,21,13,01,7.00
2008,04,21,13,02,4.80
2008,04,21,13,03,6.30
2008,04,21,13,04,5.30
2008,04,21,13,05,4.30
2008,04,21,13,06,5.00
2008,04,21,13,07,5.90
2008,04,21,13,08,7.70
2008,04,21,13,09,7.70
2008,04,21,13,10,6.40
2008,04,21,13,11,4.10
2008,04,21,13,12,5.70
2008,04,21,13,13,4.20
2008,04,21,13,14,5.30
2008,04,21,13,15,6.40
2008,04,21,13,16,9.00
2008,04,21,13,17,7.80
2008,04,21,13,18,5.80
2008,04,21,13,19,6.00
2008,04,21,13,20,6.00
2008,04,21,13,21,5.60
2008,04,21,13,22,6.30
2008,04,21,13,23,7.40
2008,04,21,13,24,7.20
2008,04,21,13,25,8.50
2008,04,21,13,26,7.20
2008,04,21,13,27,7.40
2008,04,21,13,28,5.00
2008,04,21,13,29,6.10
2008,04,21,13,30,5.30
2008,04,21,13,31,4.40
2008,04,21,13,32,7.60
2008,04,21,13,33,4.60
2008,04,21,13,34,11.50
2008,04,21,13,35,6.50
2008,04,21,13,36,5.80
2008,04,21,13,37,9.10
2008,04,21,13,38,8.40
2008,04,21,13,39,7.80
2008,04,21,13,40,6.30
2008,04,21,13,41,10.60
2008,04,21,13,42,6.60
2008,04,21,13,43,6.00
2008,04,21,13,44,6.30
2008,04,21,13,45,7.50
2008,04,21,13,46,8.80
2008,04,21,13,47,5.10
2008,04,21,13,48,6.70
2008,04,21,13,49,8.10
2008,04,21,13,50,6.40
2008,04,21,13,51,3.50
2008,04,21,13,52,5.80
2008,04,21,13,53,5.70
2008,04,21,13,54,4.80
2008,04,21,13,55,6.60
2008,04,21,13,56,2.80
2008,04,21,13,57,3.30
2008,04,21,13,58,4.90
2008,04,21,13,59,3.80
2008,04,21,14,00,6.00
2008,04,21,14,01,5.70
2008,04,21,14,02,5.80
2008,04,21,14,03,7.30
2008,04,21,14,04,5.30
2008,04,21,14,05,3.20
2008,04,21,14,06,6.50
2008,04,21,14,07,6.00
2008,04,21,14,08,5.50
2008,04,21,14,09,3.50
2008,04,21,14,10,4.30
2008,04,21,14,11,6.30
2008,04,21,14,12,6.00
2008,04,21,14,13,5.10
2008,04,21,14,14,6.80
2008,04,21,14,15,6.40
2008,04,21,14,16,5.70
2008,04,21,14,17,9.80
2008,04,21,14,18,8.90
2008,04,21,14,19,14.10
2008,04,21,14,20,14.30
2008,04,21,14,21,7.60
2008,04,21,14,22,5.40
2008,04,21,14,23,7.20
2008,04,21,14,24,6.50
2008,04,21,14,25,6.10
2008,04,21,14,26,8.70
2008,04,21,14,27,15.10
2008,04,21,14,28,14.60
2008,04,21,14,29,10.70
2008,04,21,14,30,9.60
2008,04,21,14,31,7.20
2008,04,21,14,32,6.40
2008,04,21,14,33,4.90
2008,04,21,14,34,9.40
2008,04,21,14,35,7.60
2008,04,21,14,36,4.60
2008,04,21,14,37,3.20
2008,04,21,14,38,3.30
2008,04,21,14,39,4.50
2008,04,21,14,40,5.20
2008,04,21,14,41,6.30
2008,04,21,14,42,7.40
2008,04,21,14,43,7.80
2008,04,21,14,44,7.90
2008,04,21,14,45,4.20
2008,04,21,14,46,9.00
2008,04,21,14,47,8.00
2008,04,21,14,48,4.90
2008,04,21,14,49,6.30
2008,04,21,14,50,8.10
2008,04,21,14,51,4.30
2008,04,21,14,52,6.00
2008,04,21,14,53,4.80
2008,04,21,14,54,10.80
2008,04,21,14,55,11.50
2008,04,21,14,56,6.80
2008,04,21,14,57,6.40
2008,04,21,14,58,4.30
2008,04,21,14,59,6.40
2008,04,21,15,00,11.30
2008,04,21,15,01,5.90
2008,04,21,15,02,7.60
2008,04,21,15,03,8.90
2008,04,21,15,04,7.50
2008,04,21,15,05,4.60
2008,04,21,15,06,5.90
2008,04,21,15,07,4.40
2008,04,21,15,08,4.90
2008,04,21,15,09,4.00
2008,04,21,15,10,1.20
2008,04,21,15,11,1.60
2008,04,21,15,12,0.80
2008,04,21,15,13,8.20
2008,04,21,15,14,4.70
2008,04,21,15,15,4.20
2008,04,21,15,16,2.00
2008,04,21,15,17,3.80
2008,04,21,15,18,3.10
2008,04,21,15,19,2.70
2008,04,21,15,20,5.20
2008,04,21,15,21,4.30
2008,04,21,15,22,6.80
2008,04,21,15,23,6.40
2008,04,21,15,24,5.50
2008,04,21,15,25,4.70
2008,04,21,15,26,6.70
2008,04,21,15,27,6.60
2008,04,21,15,28,3.00
2008,04,21,15,29,7.80
2008,04,21,15,30,4.60
2008,04,21,15,31,1.10
2008,04,21,15,32,7.40
2008,04,21,15,33,8.60
2008,04,21,15,34,8.00
2008,04,21,15,35,7.10
2008,04,21,15,36,5.30
2008,04,21,15,37,2.60
2008,04,21,15,38,3.60
2008,04,21,15,39,2.50
2008,04,21,15,40,7.10
2008,04,21,15,41,8.90
2008,04,21,15,42,7.00
2008,04,21,15,43,5.00
2008,04,21,15,44,6.20
2008,04,21,15,45,5.90
2008,04,21,15,46,4.30
2008,04,21,15,47,3.70
2008,04,21,15,48,6.00
2008,04,21,15,49,5.60
2008,04,21,15,50,5.80
2008,04,21,15,51,4.80
2008,04,21,15,52,2.60
2008,04,21,15,53,6.80
2008,04,21,15,54,6.20
2008,04,21,15,55,8.40
2008,04,21,15,56,7.50
2008,04,21,15,57,4.80
2008,04,21,15,58,5.30
2008,04,21,15,59,9.60
2008,04,21,16,00,5.80
2008,04,21,16,01,6.30
2008,04,21,16,02,3.40
2008,04,21,16,03,7.50
2008,04,21,16,04,6.90
2008,04,21,16,05,6.00
2008,04,21,16,06,5.70
2008,04,21,16,07,1.90
2008,04,21,16,08,8.20
2008,04,21,16,09,3.60
2008,04,21,16,10,5.40
2008,04,21,16,11,11.10
2008,04,21,16,12,9.40
2008,04,21,16,13,15.20
2008,04,21,16,14,15.40
2008,04,21,16,15,11.60
2008,04,21,16,16,10.10
2008,04,21,16,17,14.40
2008,04,21,16,18,6.80
2008,04,21,16,19,9.10
2008,04,21,16,20,6.70
2008,04,21,16,21,5.90
2008,04,21,16,22,5.60
2008,04,21,16,23,5.80
2008,04,21,16,24,8.90
2008,04,21,16,25,8.70
2008,04,21,16,26,6.30
2008,04,21,16,27,13.10
2008,04,21,16,28,9.00
2008,04,21,16,29,11.30
2008,04,21,16,30,9.40
2008,04,21,16,31,14.20
2008,04,21,16,32,8.90
2008,04,21,16,33,8.70
2008,04,21,16,34,11.30
2008,04,21,16,35,8.80
2008,04,21,16,36,6.80
2008,04,21,16,37,5.90
2008,04,21,16,38,7.70
2008,04,21,16,39,6.40
2008,04,21,16,40,6.60
2008,04,21,16,41,3.60
2008,04,21,16,42,5.90
2008,04,21,16,43,5.10
2008,04,21,16,44,6.00
2008,04,21,16,45,4.90
2008,04,21,16,46,8.90
2008,04,21,16,47,12.20
2008,04,21,16,48,11.30
2008,04,21,16,49,7.60
2008,04,21,16,50,8.40
2008,04,21,16,51,3.70
2008,04,21,16,52,7.40
2008,04,21,16,53,6.60
2008,04,21,16,54,6.80
2008,04,21,16,55,4.70
2008,04,21,16,56,5.70
2008,04,21,16,57,6.50
2008,04,21,16,58,7.10
2008,04,21,16,59,5.60
2008,04,21,17,00,7.30
2008,04,21,17,01,9.60
2008,04,21,17,02,9.70
2008,04,21,17,03,11.00
2008,04,21,17,04,6.70
2008,04,21,17,05,9.70
2008,04,21,17,06,11.70
2008,04,21,17,07,6.40
2008,04,21,17,08,9.70
2008,04,21,17,09,8.50
2008,04,21,17,10,10.50
2008,04,21,17,11,6.70
2008,04,21,17,12,4.40
2008,04,21,17,13,5.10
2008,04,21,17,14,2.10
2008,04,21,17,15,6.40
2008,04,21,17,16,8.30
2008,04,21,17,17,3.00
2008,04,21,17,18,3.10
2008,04,21,17,19,5.80
2008,04,21,17,20,7.80
2008,04,21,17,21,5.00
2008,04,21,17,22,3.20
2008,04,21,17,23,9.00
2008,04,21,17,24,2.70
2008,04,21,17,25,2.70
2008,04,21,17,26,3.90
2008,04,21,17,27,2.20
2008,04,21,17,28,1.40
2008,04,21,17,29,12.40
2008,04,21,17,30,8.30
2008,04,21,17,31,5.50
2008,04,21,17,32,4.60
2008,04,21,17,33,4.80
2008,04,21,17,34,6.30
2008,04,21,17,35,1.50
2008,04,21,17,36,3.80
2008,04,21,17,37,2.60
2008,04,21,17,38,5.10
2008,04,21,17,39,4.60
2008,04,21,17,40,5.80
2008,04,21,17,41,5.80
2008,04,21,17,42,5.60
2008,04,21,17,43,4.70
2008,04,21,17,44,3.80
2008,04,21,17,45,3.60
2008,04,21,17,46,4.00
2008,04,21,17,47,0.90
2008,04,21,17,48,2.20
2008,04,21,17,49,2.70
2008,04,21,17,50,3.60
2008,04,21,17,51,2.30
2008,04,21,17,52,0.20
2008,04,21,17,53,1.90
2008,04,21,17,54,0.00
2008,04,21,17,55,0.90
2008,04,21,17,56,1.90
2008,04,21,17,57,0.40
2008,04,21,17,58,0.40
2008,04,21,17,59,1.70
2008,04,21,18,00,3.40
2008,04,21,18,01,2.30
2008,04,21,18,02,1.10
2008,04,21,18,03,0.00
2008,04,21,18,04,1.50
2008,04,21,18,05,1.60